Weather History for Rosetown East, SK

Change the Weather History Date:

Tuesday, September 17, 2013

  Actual Average Record
Temperature  
Mean Temperature 63 °F -  
Max Temperature 75 °F - - ()
Min Temperature 51 °F - - ()
Degree Days  
Heating Degree Days 2    
Growing Degree Days 13 (Base 50)    
Moisture  
Dew Point 42 °F    
Average Humidity 43    
Maximum Humidity 73    
Minimum Humidity 16    
Precipitation  
Precipitation 0.00 in - - ()
Sea Level Pressure  
Sea Level Pressure 29.62 in    
Wind  
Wind Speed 11 mph ()    
Max Wind Speed 20 mph    
Max Gust Speed 25 mph    
T = Trace of Precipitation, MM = Missing Value Source: Averaged Metar Reports

Daily Weather History Graph

Daily Weather History Graph

Search for Another Location

Airport:

Trip Planner

Search our weather history database for the weather conditions in past years. The results will help you decide how hot, cold, wet, or windy it might be!

Date:

Astronomy

Sep. 17, 2013 Rise Set
Actual Time 6:50 AM CST 7:20 PM CST
Civil Twilight 6:16 AM CST 7:54 PM CST
Nautical Twilight 5:36 AM CST 8:34 PM CST
Astronomical Twilight 4:54 AM CST 9:16 PM CST
Moon 6:14 PM CST (9/17) 4:38 AM CST (9/17)
Length of Visible Light 13h 37m
Length of Day
12h 30m
Waxing Gibbous, 96% of the Moon is Illuminated
Sep 17
Waxing Gibbous
Sep 19
Full
Sep 26
Last Quarter
Oct 4
New
Oct 11
First Quarter

Hourly Weather History & Observations

Time (CST) Temp. Dew Point Humidity Pressure Visibility Wind Dir Wind Speed Gust Speed Precip Events Conditions
12:00 AM 72 °F 49 °F 34% 29.55 in - WSW 19.6 mph - -  
12:00 AM 72.1 °F 49.5 °F 45% 29.55 in - WSW 19.6 mph 25.3 mph N/A   Unknown
1:00 AM 68.7 °F 45.9 °F 44% 29.55 in - WSW 15.0 mph - N/A   Unknown
2:00 AM 66.7 °F 44.1 °F 44% 29.55 in - WSW 12.7 mph - N/A   Unknown
3:00 AM 63 °F 46 °F 42% 29.55 in - SW 12.7 mph - -  
3:00 AM 62.8 °F 45.7 °F 54% 29.55 in - SW 12.7 mph - N/A   Unknown
4:00 AM 61.0 °F 45.0 °F 56% 29.54 in - SW 13.8 mph - N/A   Unknown
5:00 AM 58.5 °F 44.6 °F 60% 29.56 in - SW 11.5 mph - N/A   Unknown
6:00 AM 56 °F 44 °F 55% 29.57 in - WSW 9.2 mph - -  
6:00 AM 56.3 °F 44.2 °F 64% 29.57 in - WSW 9.2 mph - N/A   Unknown
7:00 AM 51.8 °F 43.3 °F 73% 29.60 in - WSW 9.2 mph - N/A   Unknown
8:00 AM 55.9 °F 46.0 °F 69% 29.62 in - West 8.1 mph - N/A   Unknown
9:00 AM 60 °F 48 °F 54% 29.62 in - WNW 10.4 mph - -  
9:00 AM 60.4 °F 47.7 °F 63% 29.62 in - WNW 10.4 mph - N/A   Unknown
10:00 AM 64.8 °F 45.9 °F 50% 29.62 in - NW 11.5 mph - N/A   Unknown
11:00 AM 67.8 °F 42.8 °F 40% 29.64 in - NW 11.5 mph 17.3 mph N/A   Unknown
12:00 PM 71 °F 40 °F 21% 29.64 in - NW 10.4 mph - -  
12:00 PM 70.5 °F 39.7 °F 33% 29.64 in - NW 10.4 mph 17.3 mph N/A   Unknown
1:00 PM 71.6 °F 38.3 °F 30% 29.65 in - WNW 10.4 mph - N/A   Unknown
2:00 PM 73.4 °F 36.9 °F 26% 29.66 in - West 11.5 mph - N/A   Unknown
3:00 PM 74 °F 37 °F 16% 29.66 in - WNW 8.1 mph - -  
3:00 PM 74.1 °F 37.2 °F 26% 29.66 in - WNW 8.1 mph - N/A   Unknown
4:00 PM 74.1 °F 36.1 °F 25% 29.65 in - WNW 10.4 mph - N/A   Unknown
5:00 PM 73.6 °F 36.5 °F 26% 29.65 in - NW 9.2 mph - N/A   Unknown
6:00 PM 73 °F 37 °F 16% 29.65 in - NW 9.2 mph - -  
6:00 PM 72.7 °F 36.7 °F 27% 29.65 in - NW 9.2 mph - N/A   Unknown
7:00 PM 68.0 °F 36.9 °F 32% 29.65 in - NNW 3.5 mph - N/A   Unknown
8:00 PM 61.0 °F 37.4 °F 42% 29.67 in - North 3.5 mph - N/A   Unknown
9:00 PM 56.7 °F 37.6 °F 49% 29.68 in - NNW 2.3 mph - N/A   Unknown
10:00 PM 54.9 °F 37.0 °F 51% 29.69 in - NW 2.3 mph - N/A   Unknown
11:00 PM 51.8 °F 37.0 °F 57% 29.70 in - NNW 2.3 mph - N/A   Unknown